This is the latest recevied weather packets stored in our database for station/object AA8FM-13. If no packets are shown the sender has not sent any weather packets the latest 10 day(s).
| Time | Temp. | Humidity | Pressure | Rain* | Wind** | Luminosity | Snow |
|---|---|---|---|---|---|---|---|
| 1777858087 | 8.89° C | 64% | 1012.1 hPa | 0 mm | - | 0 W/m² | - |
| 1777857785 | 9.44° C | 61% | 1012.3 hPa | 0 mm | - | 0 W/m² | - |
| 1777857482 | 8.89° C | 62% | 1012.1 hPa | 0 mm | - | 0 W/m² | - |
| 1777857178 | 9.44° C | 62% | 1012.1 hPa | 0 mm | - | 0 W/m² | - |
| 1777856874 | 9.44° C | 61% | 1012.2 hPa | 0 mm | - | 0 W/m² | - |
| 1777856570 | 9.44° C | 62% | 1012.3 hPa | 0 mm | - | 0 W/m² | - |
| 1777856267 | 9.44° C | 63% | 1012 hPa | 0 mm | - | 0 W/m² | - |
| 1777855964 | 10° C | 61% | 1011.9 hPa | 0 mm | - | 0 W/m² | - |
| 1777855662 | 10° C | 58% | 1012.1 hPa | 0 mm | - | 0 W/m² | - |
| 1777855359 | 10.56° C | 56% | 1011.8 hPa | 0 mm | - | 0 W/m² | - |
| 1777855055 | 10.56° C | 56% | 1011.8 hPa | 0 mm | - | 0 W/m² | - |
| 1777854752 | 10.56° C | 53% | 1011.6 hPa | 0 mm | - | 0 W/m² | - |
| 1777854449 | 11.11° C | 56% | 1012 hPa | 0 mm | - | 0 W/m² | - |
| 1777854146 | 11.67° C | 53% | 1011.6 hPa | 0 mm | - | 1 W/m² | - |
| 1777853844 | 12.22° C | 47% | 1011.9 hPa | 0 mm | - | 2 W/m² | - |
| 1777853540 | 12.22° C | 51% | 1011.8 hPa | 0 mm | - | 3 W/m² | - |
| 1777853237 | 12.78° C | 45% | 1012 hPa | 0 mm | - | 4 W/m² | - |
| 1777852934 | 12.78° C | 43% | 1012 hPa | 0 mm | - | 6 W/m² | - |
| 1777852632 | 12.78° C | 44% | 1011.9 hPa | 0 mm | - | 10 W/m² | - |
| 1777852329 | 12.78° C | 43% | 1012 hPa | 0 mm | - | 13 W/m² | - |
| 1777852027 | 12.78° C | 43% | 1011.8 hPa | 0 mm | - | 17 W/m² | - |
| 1777851725 | 13.33° C | 41% | 1011.9 hPa | 0 mm | - | 17 W/m² | - |
| 1777851421 | 13.33° C | 42% | 1011.9 hPa | 0 mm | - | 20 W/m² | - |
| 1777851117 | 13.33° C | 42% | 1012 hPa | 0 mm | - | 27 W/m² | - |
| 1777850814 | 13.33° C | 43% | 1012 hPa | 0 mm | - | 26 W/m² | - |
* Rain latest hour (hover to see other rain measurements)
** Current wind speed in m/s (hover to see current wind gust speed)